[[{"header":{"parameterUnit":"m.s-1","parameterCategory":2,"la1":30.2991,"la2":30.254,"lo1":-89.0895,"lo2":-89.0444,"dy":0.0017,"dx":0.0017,"nx":28,"ny":28,"refTime":"2025-03-25T03:00:00:Z","depth":"0","parameterNumber":2,"parameterNumberName":"U-component_of_CURRENTS"},"data":[0,0,0,0,0,0,0,0,0,0,0,0,0,0,0,0,0,0,0,0,0,0,0,0,0,0,0,0,0,0,0,0,0,0,0,0,0,0,0,0,0,0,0,0,0,0,0,0,0,0,0,0,0,0,0,0,0,0,0.3826,0.3827,0,0.3859,0.3858,0.3858,0.386,0.3861,0.3861,0.3861,0.3844,0.3843,0.3842,0,0,0,0,0,0,0,0,0,0,0,0,0,0.3743,0.3744,0.3826,0.3827,0.3829,0.3859,0.3858,0.3858,0.386,0.3861,0.3861,0.3861,0.3844,0.3843,0.3842,0,0,0,0,0,0,0,0,0,0,0,0,0,0.377,0.3744,0.3826,0.3839,0.3841,0.3859,0.3858,0.3858,0.386,0.3861,0.3861,0.3862,0.3845,0.3843,0.3842,0.3825,0,0,0.3839,0.3838,0,0,0,0,0,0,0,0,0.3769,0.3772,0.3836,0.3838,0.384,0.3863,0.3823,0.3847,0.386,0.3845,0.3861,0.3862,0.385,0.3849,0.3843,0.3824,0.3824,0.3839,0.3838,0.3837,0.3837,0,0,0,0,0,0,0,0.3767,0.3771,0.3831,0.3837,0.384,0.3835,0.3839,0.3827,0.3838,0.3846,0.3848,0.3864,0.385,0.3845,0.3843,0.3823,0.3839,0.3838,0.3837,0.3836,0.3902,0.3904,0,0,0,0,0,0,0.3779,0.377,0.3831,0.3833,0.3814,0.3837,0.3841,0.3849,0.3839,0.384,0.3863,0.3864,0.3846,0.3844,0.3843,0.3886,0.3837,0.3836,0.3836,0.3899,0.3902,0.3905,0,0,0,0,0,0,0.3777,0.3784,0.3829,0.3808,0.3815,0.3839,0.3847,0.3849,0.3847,0.3854,0.3853,0.386,0.3847,0.3844,0.3865,0.3883,0.3836,0.3835,0.3896,0.39,0.3903,0.3932,0,0,0,0,0,0,0.3774,0.3782,0.3782,0.3809,0.3817,0.3845,0.3848,0.385,0.386,0.386,0.3851,0.385,0.3847,0.3867,0.3864,0.3881,0.3834,0.3893,0.3898,0.3902,0.3928,0.3936,0.3943,0,0,0,0,0,0.3771,0.3766,0.3782,0.379,0.3819,0.3846,0.3848,0.3862,0.3859,0.3859,0.3875,0.385,0.3894,0.3868,0.3863,0.388,0.3891,0.3897,0.3902,0.3925,0.3935,0.3943,0,0,0,0,0,0,0.3714,0.3768,0.3785,0.3793,0.3825,0.3849,0.3848,0.386,0.3869,0.3871,0.3868,0.3869,0.3901,0.3892,0.3863,0.392,0.3893,0.3898,0.3912,0.3921,0.3928,0.3938,0.3833,0,0,0,0,0,0.3709,0.3728,0.3774,0.3781,0.3795,0.3821,0.383,0.3849,0.3868,0.3871,0.3877,0.3894,0.3919,0.392,0.3939,0.3949,0.4013,0.3967,0.3974,0.398,0.399,0.4134,0.4156,0.3923,0.3923,0.3923,0,0,0.3687,0.3722,0.3729,0.3772,0.3791,0.3824,0.3825,0.3846,0.3879,0.3867,0.39,0.3916,0.3933,0.3968,0.398,0.3957,0.4083,0.3987,0.3992,0.3999,0.4142,0.4165,0.4185,0.3926,0.3926,0.3925,0,0,0.3664,0.3686,0.3699,0.3735,0.3786,0.3814,0.3823,0.3862,0.3879,0.392,0.3936,0.3971,0.3989,0.4017,0.403,0.4088,0.4127,0.4092,0.412,0.426,0.428,0.4299,0.4418,0.4447,0.4085,0.4085,0.4085,0,0.3638,0.3676,0.3704,0.3738,0.378,0.3813,0.3851,0.3871,0.3917,0.3953,0.3941,0.4031,0.402,0.4091,0.4106,0.4102,0.4191,0.4075,0.427,0.429,0.4308,0.4426,0.4458,0.4087,0.4087,0.4087,0.4087,0,0.364,0.3679,0.3688,0.3758,0.3794,0.3834,0.3891,0.3927,0.3959,0.3999,0.408,0.4095,0.416,0.4153,0.4133,0.4253,0.4278,0.427,0.4242,0.4333,0.4452,0.4485,0.409,0.4089,0.4089,0.4088,0,0,0.3577,0.3675,0.3682,0.3744,0.3823,0.3866,0.3921,0.4004,0.4072,0.4107,0.4208,0.4224,0.4251,0.427,0.4268,0.4347,0.4527,0.4354,0.436,0.4465,0.485,0.4778,0.4807,0.4568,0.4573,0.4578,0.4883,0,0.3583,0.367,0.3709,0.3803,0.3869,0.3931,0.3995,0.4072,0.4137,0.4238,0.4274,0.4356,0.4293,0.4336,0.4412,0.4508,0.4614,0.4445,0.4753,0.4762,0.4681,0.4842,0.4622,0.4868,0.4915,0.492,0.4924,0,0.3585,0.3663,0.3759,0.3895,0.3924,0.398,0.4129,0.4185,0.431,0.4362,0.4449,0.4493,0.4601,0.4542,0.4775,0.4681,0.4774,0.4834,0.4848,0.4792,0.4751,0.4785,0.4926,0.4728,0.4975,0.4971,0.4967,0,0.3591,0.3699,0.3795,0.3841,0.3984,0.4043,0.4112,0.4233,0.4302,0.4454,0.4532,0.4673,0.476,0.4906,0.4987,0.4929,0.5255,0.5203,0.5233,0.5229,0.5105,0.5079,0.5079,0.5407,0.5406,0.5406,0.5405,0,0.3614,0.3689,0.3812,0.3881,0.3992,0.4079,0.4202,0.428,0.4415,0.452,0.46,0.4715,0.4859,0.5026,0.5103,0.5275,0.5373,0.5287,0.5323,0.5107,0.5079,0.4948,0.4873,0.5417,0.5414,0.5412,0.541,0,0.3607,0.3689,0.3809,0.3962,0.4006,0.4088,0.4223,0.4319,0.4434,0.4583,0.4635,0.4812,0.5029,0.516,0.5413,0.5421,0.5431,0.5616,0.5332,0.5327,0.5124,0.506,0.5037,0.4886,0.5733,0.5734,0.5734,0,0.3611,0.3681,0.3844,0.3924,0.3994,0.4114,0.4201,0.4315,0.441,0.4632,0.4712,0.4944,0.5095,0.5421,0.5499,0.5683,0.547,0.5551,0.5375,0.5121,0.508,0.4888,0.4747,0.5243,0.5239,0.5236,0.5234,0,0.3643,0.37,0.3815,0.3964,0.4069,0.4142,0.4267,0.4327,0.4479,0.4597,0.4777,0.4917,0.5202,0.5283,0.5482,0.5537,0.5244,0.5492,0.5324,0.4785,0.4489,0.4354,0.5022,0.5206,0.5209,0.5211,0.5212,0.5213,0.3671,0.3742,0.3905,0.4022,0.4114,0.4164,0.4184,0.43,0.4402,0.4519,0.4737,0.4873,0.502,0.5268,0.5294,0.5106,0.5122,0.4927,0.4909,0.4766,0.4478,0.507,0.5217,0.522,0.5222,0.5224,0.5226,0,0.3746,0.3835,0.3957,0.4081,0.4119,0.4159,0.4227,0.4195,0.4237,0.4418,0.4538,0.4667,0.4725,0.4787,0.4712,0.4535,0.433,0.4369,0.4024,0.3944,0.4569,0.4394,0.4251,0.4252,0.4252,0.4252,0.4252,0.4252,0.3811,0.395,0.3995,0.4063,0.4097,0.4059,0.4042,0.398,0.4047,0.4054,0.4109,0.424,0.4331,0.4338,0.4105,0.4005,0.3664,0.3533,0.3527,0.3918,0.3965,0.401,0.3823,0.3563,0.3562,0.2697,0.2691,0.2686]},{"header":{"parameterUnit":"m.s-1","parameterCategory":2,"la1":30.2991,"la2":30.254,"lo1":-89.0895,"lo2":-89.0444,"dy":0.0017,"dx":0.0017,"nx":28,"ny":28,"refTime":"2025-03-25T03:00:00:Z","depth":"0","parameterNumber":3,"parameterNumberName":"V-component_of_CURRENTS"},"data":[0,0,0,0,0,0,0,0,0,0,0,0,0,0,0,0,0,0,0,0,0,0,0,0,0,0,0,0,0,0,0,0,0,0,0,0,0,0,0,0,0,0,0,0,0,0,0,0,0,0,0,0,0,0,0,0,0,0,-0.0576,-0.0577,0,-0.0615,-0.0615,-0.0616,-0.0649,-0.0649,-0.065,-0.065,-0.078,-0.0783,-0.0786,0,0,0,0,0,0,0,0,0,0,0,0,0,-0.0514,-0.0515,-0.0576,-0.0577,-0.0578,-0.0615,-0.0615,-0.0616,-0.0648,-0.0649,-0.065,-0.065,-0.0779,-0.0782,-0.0786,0,0,0,0,0,0,0,0,0,0,0,0,0,-0.0544,-0.0515,-0.0576,-0.06,-0.0602,-0.0615,-0.0615,-0.0616,-0.0648,-0.0649,-0.065,-0.0651,-0.0778,-0.0782,-0.0786,-0.0799,0,0,-0.08,-0.0802,0,0,0,0,0,0,0,0,-0.0542,-0.0546,-0.0596,-0.0598,-0.0601,-0.0629,-0.0641,-0.0682,-0.0648,-0.0629,-0.065,-0.0651,-0.0738,-0.0746,-0.0748,-0.0805,-0.081,-0.0801,-0.0803,-0.0805,-0.0806,0,0,0,0,0,0,0,-0.054,-0.0544,-0.059,-0.0596,-0.06,-0.0602,-0.0607,-0.0648,-0.0679,-0.0631,-0.0634,-0.064,-0.074,-0.0744,-0.0752,-0.0812,-0.08,-0.0804,-0.0807,-0.0809,-0.0979,-0.098,0,0,0,0,0,0,-0.0539,-0.0543,-0.0589,-0.0591,-0.0575,-0.0603,-0.0609,-0.0618,-0.0677,-0.0687,-0.064,-0.0642,-0.0736,-0.0746,-0.0757,-0.0807,-0.0805,-0.0809,-0.0812,-0.0977,-0.0979,-0.0981,0,0,0,0,0,0,-0.0537,-0.0543,-0.0587,-0.0569,-0.0575,-0.0604,-0.0614,-0.0618,-0.0622,-0.0683,-0.0694,-0.0639,-0.0737,-0.075,-0.0816,-0.0811,-0.0811,-0.0815,-0.0975,-0.0978,-0.098,-0.0888,0,0,0,0,0,0,-0.0535,-0.0542,-0.0534,-0.0569,-0.0576,-0.0589,-0.0613,-0.0619,-0.0626,-0.0629,-0.0686,-0.0699,-0.0738,-0.0809,-0.082,-0.0818,-0.0819,-0.0972,-0.0976,-0.0979,-0.0889,-0.0887,-0.0886,0,0,0,0,0,-0.0533,-0.0513,-0.0534,-0.0539,-0.057,-0.0589,-0.0592,-0.0614,-0.0625,-0.062,-0.0682,-0.0697,-0.0839,-0.0814,-0.0827,-0.0825,-0.0971,-0.0975,-0.0979,-0.089,-0.0888,-0.0886,0,0,0,0,0,0,-0.047,-0.0516,-0.0539,-0.0532,-0.056,-0.0595,-0.058,-0.0607,-0.0646,-0.065,-0.0714,-0.0732,-0.0789,-0.0832,-0.0802,-0.0893,-0.091,-0.0916,-0.0838,-0.0836,-0.0835,-0.0751,-0.0823,0,0,0,0,0,-0.0458,-0.0465,-0.0509,-0.0504,-0.0509,-0.0546,-0.0552,-0.0575,-0.0618,-0.0633,-0.0688,-0.0754,-0.0815,-0.0844,-0.0904,-0.0943,-0.0889,-0.0959,-0.0957,-0.0955,-0.0901,-0.0817,-0.0799,-0.0995,-0.0994,-0.0994,0,0,-0.0432,-0.0459,-0.0461,-0.0493,-0.0507,-0.0513,-0.055,-0.0554,-0.0568,-0.0644,-0.068,-0.0748,-0.0829,-0.0881,-0.091,-0.0913,-0.0878,-0.096,-0.0957,-0.0903,-0.0819,-0.0798,-0.078,-0.0997,-0.0997,-0.0996,0,0,-0.0379,-0.0405,-0.0389,-0.0414,-0.0442,-0.0473,-0.0474,-0.0519,-0.0541,-0.0595,-0.0659,-0.0712,-0.0816,-0.0854,-0.0892,-0.0918,-0.0876,-0.0966,-0.0877,-0.0798,-0.0778,-0.0759,-0.0667,-0.0641,-0.096,-0.0959,-0.0959,0,-0.034,-0.0341,-0.0385,-0.038,-0.039,-0.0453,-0.044,-0.0474,-0.0544,-0.0552,-0.06,-0.0711,-0.0789,-0.0816,-0.0842,-0.0903,-0.0844,-0.0868,-0.0784,-0.0765,-0.0748,-0.0657,-0.0629,-0.0955,-0.0956,-0.0956,-0.0957,0,-0.0285,-0.0288,-0.0275,-0.0303,-0.0318,-0.0318,-0.0377,-0.0401,-0.045,-0.0486,-0.0528,-0.0624,-0.0669,-0.0733,-0.0798,-0.0742,-0.0735,-0.0785,-0.076,-0.072,-0.0631,-0.0603,-0.095,-0.0951,-0.0952,-0.0953,0,0,-0.0194,-0.0228,-0.0224,-0.0224,-0.0279,-0.0282,-0.0306,-0.033,-0.0307,-0.0397,-0.0355,-0.0494,-0.0515,-0.0558,-0.064,-0.0596,-0.0456,-0.0631,-0.0629,-0.0487,-0.0243,-0.0293,-0.0268,-0.0476,-0.0471,-0.0467,-0.0226,0,-0.0134,-0.0109,-0.0147,-0.0129,-0.0122,-0.0185,-0.0189,-0.0224,-0.026,-0.0241,-0.0317,-0.0323,-0.0459,-0.0458,-0.0438,-0.0447,-0.038,-0.0514,-0.0346,-0.034,-0.0346,-0.0237,-0.0267,-0.0059,-0.0199,-0.0195,-0.0192,0,-0.0065,-0.0065,-0.0029,-0.0039,-0.0034,-0.0032,-0.0025,-0.0034,-0.0039,-0.0054,-0.0062,-0.0111,-0.0086,-0.0196,-0.012,-0.0192,-0.0192,-0.0201,-0.0193,-0.0237,-0.0338,-0.0129,-0.0004,-0.0262,-0.0149,-0.0153,-0.0156,0,0.0014,0.002,0.0052,0.0043,0.0025,0.0044,0.0042,0.0033,0.0069,0.0101,0.0162,0.0146,0.0196,0.0188,0.0125,0.0041,0.0246,0.0123,0.0088,0.0084,0.0096,0.0085,0.0043,0.0232,0.0231,0.023,0.023,0,0.0082,0.011,0.0099,0.0113,0.018,0.0138,0.0226,0.0216,0.027,0.0372,0.0291,0.0398,0.0306,0.0366,0.0275,0.0295,0.0376,0.0171,0.0164,0.0117,0.0105,-0.0094,-0.0252,0.0239,0.0237,0.0236,0.0234,0,0.0163,0.015,0.0192,0.02,0.0218,0.027,0.0343,0.0414,0.0449,0.0598,0.0634,0.0666,0.0755,0.0657,0.0687,0.0523,0.039,0.0492,0.0442,0.0423,0.0077,-0.0074,-0.0045,-0.0139,0.0511,0.0512,0.0512,0,0.0205,0.0233,0.0273,0.0321,0.0333,0.0408,0.0474,0.0504,0.0596,0.0773,0.0875,0.0994,0.1108,0.1112,0.088,0.0778,0.0508,0.0607,0.0403,0.0116,-0.0056,-0.0175,-0.0267,0.0467,0.0467,0.0467,0.0467,0,0.0287,0.0303,0.034,0.0435,0.0509,0.0605,0.0705,0.0803,0.0891,0.1054,0.1289,0.1412,0.1394,0.1307,0.1088,0.0919,0.039,0.0599,0.034,-0.004,-0.0198,-0.0313,0.0243,0.0467,0.0467,0.0467,0.0467,0.0467,0.0356,0.0404,0.0458,0.0554,0.0654,0.0791,0.0893,0.1045,0.1249,0.1529,0.1615,0.1902,0.1642,0.1359,0.1054,0.042,0.0435,0.0196,0.0066,-0.0005,-0.0195,0.0357,0.0516,0.0516,0.0516,0.0516,0.0516,0,0.0431,0.0481,0.0575,0.0688,0.0818,0.0849,0.1043,0.1185,0.1465,0.181,0.2064,0.2194,0.1773,0.1282,0.0463,-0.0018,-0.0235,-0.03,-0.0492,-0.054,0.0008,-0.0105,-0.012,-0.012,-0.012,-0.0119,-0.0119,-0.0119,0.0472,0.0563,0.0605,0.0806,0.0902,0.1085,0.1202,0.1457,0.1739,0.2215,0.252,0.2734,0.2341,0.0753,-0.0342,-0.0594,-0.0966,-0.1013,-0.1161,-0.0865,-0.0831,-0.0798,-0.0943,-0.1133,-0.1135,-0.1671,-0.1677,-0.1682]}],[{"header":{"parameterUnit":"m.s-1","parameterCategory":2,"la1":30.2991,"la2":30.254,"lo1":-89.0895,"lo2":-89.0444,"dy":0.0017,"dx":0.0017,"nx":28,"ny":28,"refTime":"2025-03-25T03:00:00:Z","depth":"2","parameterNumber":2,"parameterNumberName":"U-component_of_CURRENTS"},"data":[0,0,0,0,0,0,0,0,0,0,0,0,0,0,0,0,0,0,0,0,0,0,0,0,0,0,0,0,0,0,0,0,0,0,0,0,0,0,0,0,0,0,0,0,0,0,0,0,0,0,0,0,0,0,0,0,0,0,0.2592,0.2593,0,0.2667,0.2668,0.2669,0.2697,0.2697,0.2697,0.2697,0.2673,0.2672,0.2672,0,0,0,0,0,0,0,0,0,0,0,0,0,0.2567,0.2566,0.2592,0.2593,0.2594,0.2667,0.2668,0.2669,0.2697,0.2697,0.2697,0.2697,0.2673,0.2672,0.2671,0,0,0,0,0,0,0,0,0,0,0,0,0,0.2601,0.2566,0.2592,0.2618,0.2621,0.2667,0.2668,0.2669,0.2697,0.2697,0.2697,0.2697,0.2673,0.2672,0.2671,0.2669,0,0,0.2669,0.2668,0,0,0,0,0,0,0,0,0.2599,0.2602,0.2613,0.2617,0.262,0.2674,0.2651,0.2665,0.2697,0.2667,0.2697,0.2697,0.2665,0.2665,0.2678,0.2668,0.2667,0.2669,0.2668,0.2668,0.2668,0,0,0,0,0,0,0,0.2597,0.26,0.262,0.2614,0.2619,0.2659,0.2662,0.2654,0.2663,0.2669,0.2672,0.2683,0.2666,0.2679,0.2678,0.2666,0.2669,0.2668,0.2667,0.2667,0.2738,0.2741,0,0,0,0,0,0,0.2586,0.2597,0.2618,0.2623,0.2611,0.2659,0.2663,0.2656,0.2665,0.2668,0.2683,0.2684,0.2681,0.2679,0.2677,0.2716,0.2668,0.2667,0.2667,0.2736,0.2739,0.2742,0,0,0,0,0,0,0.2585,0.2586,0.2615,0.2614,0.2621,0.2659,0.2651,0.2657,0.2693,0.2677,0.2677,0.2715,0.2681,0.2678,0.2686,0.2713,0.2667,0.2666,0.2733,0.2737,0.274,0.2767,0,0,0,0,0,0,0.2583,0.2585,0.259,0.2612,0.262,0.2652,0.2651,0.2659,0.27,0.2702,0.2704,0.27,0.268,0.2688,0.2685,0.2711,0.2665,0.273,0.2735,0.2739,0.2763,0.2771,0.2778,0,0,0,0,0,0.2582,0.2582,0.2589,0.2593,0.262,0.2653,0.2661,0.2687,0.2702,0.272,0.2722,0.2702,0.2716,0.2688,0.2685,0.2711,0.2728,0.2734,0.2739,0.2759,0.2769,0.2777,0,0,0,0,0,0,0.2568,0.2586,0.2594,0.2597,0.2629,0.2658,0.268,0.2704,0.2725,0.2728,0.2714,0.2711,0.2752,0.2727,0.2698,0.2753,0.2726,0.2731,0.2743,0.2752,0.276,0.2807,0.2665,0,0,0,0,0,0.2568,0.2575,0.2601,0.2608,0.2623,0.2659,0.2682,0.2702,0.272,0.2732,0.273,0.274,0.2771,0.2755,0.2781,0.2776,0.2824,0.2802,0.2809,0.2815,0.2857,0.2945,0.2964,0.2759,0.2759,0.2759,0,0,0.2561,0.2577,0.258,0.2608,0.2633,0.2662,0.2672,0.271,0.2747,0.2722,0.276,0.2779,0.2789,0.2812,0.2824,0.2783,0.2899,0.2822,0.2826,0.2866,0.2953,0.2973,0.299,0.2763,0.2762,0.2762,0,0,0.2563,0.257,0.2583,0.2614,0.266,0.2679,0.2697,0.2735,0.2765,0.2798,0.2816,0.2853,0.2856,0.2878,0.2889,0.2953,0.2965,0.2953,0.2985,0.3068,0.3086,0.3102,0.3185,0.3208,0.2918,0.2918,0.2918,0,0.2562,0.2575,0.2596,0.2627,0.2652,0.2689,0.2717,0.2758,0.2797,0.283,0.2815,0.291,0.2902,0.2969,0.2988,0.2971,0.302,0.2937,0.3077,0.3094,0.311,0.3191,0.3217,0.292,0.292,0.2919,0.2919,0,0.2573,0.2599,0.2612,0.2656,0.2686,0.2717,0.2766,0.2809,0.2843,0.2883,0.2976,0.2989,0.3042,0.3043,0.3026,0.3135,0.3136,0.3103,0.3049,0.3132,0.3213,0.3238,0.2923,0.2922,0.2921,0.2921,0,0,0.2533,0.2604,0.2612,0.2654,0.2704,0.2739,0.2794,0.2864,0.294,0.2978,0.3066,0.3123,0.3152,0.3173,0.3169,0.3219,0.3355,0.3197,0.3201,0.3272,0.3553,0.3407,0.3421,0.3336,0.3341,0.3345,0.3561,0,0.254,0.2586,0.2626,0.2696,0.2721,0.2784,0.2856,0.2929,0.2983,0.3075,0.3128,0.3213,0.3194,0.3223,0.3283,0.3357,0.3427,0.3302,0.3471,0.3478,0.333,0.3448,0.3154,0.331,0.3587,0.3591,0.3594,0,0.2541,0.257,0.262,0.2737,0.2763,0.2831,0.2948,0.3016,0.314,0.3195,0.3275,0.3312,0.3419,0.3377,0.357,0.3489,0.3546,0.3587,0.3595,0.3477,0.3381,0.3275,0.3347,0.3638,0.3634,0.3631,0.3628,0,0.2495,0.2583,0.2624,0.2656,0.2782,0.2857,0.2934,0.3056,0.3153,0.3269,0.3347,0.346,0.3546,0.3639,0.3714,0.3656,0.3921,0.384,0.3778,0.3769,0.3566,0.3528,0.4005,0.4004,0.4004,0.4003,0.4003,0,0.249,0.2534,0.2629,0.2666,0.2763,0.2864,0.3008,0.3091,0.3261,0.3362,0.3422,0.3516,0.362,0.3743,0.379,0.388,0.3993,0.3842,0.3829,0.3563,0.3525,0.3837,0.3815,0.4011,0.401,0.4008,0.4007,0,0.2449,0.2506,0.2565,0.2697,0.2749,0.2821,0.3042,0.314,0.3314,0.3441,0.348,0.3631,0.3754,0.3855,0.4014,0.398,0.4064,0.4065,0.3743,0.3686,0.384,0.3817,0.4023,0.402,0.4018,0.4015,0.4014,0,0.2434,0.2457,0.2554,0.2597,0.2674,0.2812,0.2903,0.3117,0.3209,0.348,0.3514,0.3699,0.3741,0.3946,0.3929,0.4004,0.4075,0.3749,0.3568,0.3882,0.385,0.3831,0.3812,0.3328,0.3321,0.3315,0.331,0,0.2398,0.2431,0.2471,0.2524,0.2621,0.273,0.2878,0.2954,0.3179,0.3293,0.3433,0.351,0.3698,0.36,0.3693,0.3681,0.3696,0.3624,0.4097,0.3332,0.3234,0.3199,0.3202,0.3257,0.3262,0.3266,0.3269,0.3271,0.2355,0.2351,0.2391,0.2451,0.2543,0.2608,0.2674,0.2782,0.2884,0.2992,0.3165,0.32,0.3321,0.3267,0.3225,0.32,0.3431,0.3269,0.3286,0.331,0.3154,0.3052,0.3015,0.3019,0.3022,0.3025,0.3027,0,0.2277,0.2274,0.2322,0.239,0.2426,0.2541,0.2634,0.262,0.2623,0.2699,0.2771,0.2587,0.2583,0.2739,0.2627,0.264,0.2602,0.2527,0.2455,0.2511,0.256,0.2362,0.2017,0.2013,0.201,0.2007,0,0,0.2243,0.2194,0.2214,0.2222,0.2325,0.2331,0.2353,0.2295,0.2302,0.2175,0.2184,0.239,0.261,0.224,0.2235,0.2105,0.2272,0.202,0.2838,0.2806,0.2849,0.3008,0.2769,0,0,0,0,0]},{"header":{"parameterUnit":"m.s-1","parameterCategory":2,"la1":30.2991,"la2":30.254,"lo1":-89.0895,"lo2":-89.0444,"dy":0.0017,"dx":0.0017,"nx":28,"ny":28,"refTime":"2025-03-25T03:00:00:Z","depth":"2","parameterNumber":3,"parameterNumberName":"V-component_of_CURRENTS"},"data":[0,0,0,0,0,0,0,0,0,0,0,0,0,0,0,0,0,0,0,0,0,0,0,0,0,0,0,0,0,0,0,0,0,0,0,0,0,0,0,0,0,0,0,0,0,0,0,0,0,0,0,0,0,0,0,0,0,0,0.0082,0.0081,0,0.0003,0.0002,0.0002,-0.0047,-0.0048,-0.0048,-0.0048,-0.0124,-0.0126,-0.0128,0,0,0,0,0,0,0,0,0,0,0,0,0,0.0103,0.0104,0.0082,0.0081,0.008,0.0003,0.0002,0.0001,-0.0047,-0.0048,-0.0048,-0.0048,-0.0124,-0.0126,-0.0128,0,0,0,0,0,0,0,0,0,0,0,0,0,0.0067,0.0104,0.0082,0.0047,0.0043,0.0004,0.0002,0.0001,-0.0047,-0.0048,-0.0048,-0.0048,-0.0123,-0.0126,-0.0128,-0.0137,0,0,-0.0136,-0.0138,0,0,0,0,0,0,0,0,0.0069,0.0066,0.0053,0.0049,0.0044,-0.0013,-0.0018,-0.0045,-0.0047,-0.0013,-0.0048,-0.0049,-0.0086,-0.0092,-0.0106,-0.014,-0.0143,-0.0137,-0.0138,-0.0139,-0.014,0,0,0,0,0,0,0,0.0072,0.0068,0.0051,0.0052,0.0047,0.0005,-0.0,-0.0024,-0.0046,-0.0016,-0.002,-0.0029,-0.0089,-0.0103,-0.0108,-0.0145,-0.0137,-0.0139,-0.0141,-0.0142,-0.0197,-0.0197,0,0,0,0,0,0,0.0086,0.0072,0.0053,0.0049,0.0056,0.0005,-0.0001,0.0006,-0.0046,-0.0055,-0.0028,-0.0031,-0.0099,-0.0105,-0.0111,-0.0107,-0.0139,-0.0142,-0.0143,-0.0197,-0.0197,-0.0197,0,0,0,0,0,0,0.0087,0.0086,0.0057,0.0057,0.005,0.0006,0.0013,0.0005,-0.0013,-0.0056,-0.0064,-0.0038,-0.0099,-0.0107,-0.0128,-0.0111,-0.0143,-0.0146,-0.0197,-0.0197,-0.0197,-0.011,0,0,0,0,0,0,0.0089,0.0087,0.0092,0.0059,0.0051,0.0041,0.0013,0.0004,-0.0018,-0.0022,-0.0067,-0.0074,-0.01,-0.0124,-0.0131,-0.0115,-0.0148,-0.0197,-0.0197,-0.0197,-0.0113,-0.0107,-0.0101,0,0,0,0,0,0.009,0.0103,0.0093,0.009,0.0061,0.0041,0.0034,-0.0001,-0.0018,-0.002,-0.005,-0.0073,-0.0127,-0.0125,-0.0134,-0.0119,-0.0197,-0.0197,-0.0197,-0.0115,-0.0108,-0.0101,0,0,0,0,0,0,0.0111,0.0098,0.0087,0.0094,0.0072,0.0033,0.0027,0.0002,-0.0025,-0.003,-0.007,-0.0079,-0.0095,-0.0121,-0.0119,-0.0137,-0.0167,-0.0168,-0.0102,-0.0096,-0.009,-0.0075,-0.015,0,0,0,0,0,0.012,0.0126,0.0103,0.0106,0.0103,0.0065,0.005,0.0027,-0.0,-0.0014,-0.0043,-0.0076,-0.01,-0.0108,-0.014,-0.0143,-0.0172,-0.0141,-0.0135,-0.013,-0.0126,-0.0158,-0.0154,-0.0196,-0.0196,-0.0196,0,0,0.0129,0.012,0.0123,0.011,0.0093,0.0096,0.0055,0.004,0.004,-0.0016,-0.0024,-0.0061,-0.0101,-0.0108,-0.0116,-0.0124,-0.0132,-0.013,-0.0125,-0.0123,-0.0157,-0.0153,-0.0149,-0.0195,-0.0196,-0.0196,0,0,0.0151,0.0146,0.016,0.0151,0.0129,0.0112,0.0111,0.0079,0.0064,0.0049,0.0009,-0.0019,-0.0052,-0.0075,-0.009,-0.0074,-0.0108,-0.0082,-0.0028,-0.0059,-0.0056,-0.0053,-0.0071,-0.0071,-0.0068,-0.0068,-0.0068,0,0.0159,0.018,0.0158,0.0169,0.0171,0.0127,0.0145,0.0125,0.0086,0.0087,0.0058,0.0003,-0.0037,-0.004,-0.0035,-0.0059,-0.0077,-0.0046,-0.0049,-0.0048,-0.0046,-0.0066,-0.0067,-0.0064,-0.0064,-0.0065,-0.0065,0,0.0196,0.021,0.0219,0.0228,0.0224,0.0231,0.021,0.0205,0.018,0.0159,0.014,0.0079,0.0052,0.0033,0.0005,0.0002,-0.0014,-0.0044,-0.006,-0.0036,-0.006,-0.0062,-0.0058,-0.0059,-0.0061,-0.0062,0,0,0.0227,0.0245,0.0249,0.0272,0.026,0.0267,0.0276,0.0282,0.0306,0.0247,0.0268,0.0199,0.0162,0.014,0.0094,0.0066,0.0055,0.0026,0.0023,0.002,0.0002,-0.003,-0.0036,0.0031,0.003,0.003,-0.0012,0,0.0265,0.0316,0.0306,0.0353,0.0385,0.036,0.0382,0.0376,0.0363,0.0372,0.03,0.0289,0.0206,0.0199,0.0155,0.0075,0.0051,0.007,-0.0032,-0.0035,-0.0057,-0.004,-0.0023,-0.0062,-0.0015,-0.0015,-0.0016,0,0.0306,0.0342,0.04,0.0445,0.0458,0.0472,0.0518,0.0533,0.0527,0.0516,0.0481,0.0421,0.0361,0.029,0.0164,0.0183,0.0104,0.0036,0.0033,-0.0031,-0.0072,-0.0084,-0.0069,-0.002,-0.002,-0.0019,-0.0019,0,0.0357,0.0407,0.0464,0.0476,0.0515,0.0539,0.0564,0.0578,0.0625,0.0609,0.0636,0.0533,0.0508,0.0371,0.0212,0.0194,0.0082,0.0037,-0.0064,-0.0067,-0.0092,-0.0097,-0.0038,-0.0038,-0.0038,-0.0038,-0.0038,0,0.0406,0.0451,0.0495,0.0526,0.0615,0.061,0.07,0.0708,0.0747,0.0823,0.0717,0.075,0.0529,0.0433,0.0264,0.0094,0.0116,-0.0051,-0.0081,-0.0061,-0.0062,-0.0063,-0.0066,-0.0039,-0.0039,-0.0039,-0.0038,0,0.0445,0.047,0.0549,0.0611,0.0639,0.0706,0.0804,0.0882,0.089,0.0986,0.0986,0.0919,0.0786,0.0564,0.0356,0.0185,0.0007,-0.0052,-0.001,-0.0036,-0.0133,-0.013,-0.0176,-0.0178,-0.0179,-0.018,-0.0181,0,0.0471,0.0513,0.062,0.0687,0.0715,0.0816,0.0906,0.0953,0.105,0.1102,0.117,0.1068,0.1025,0.0697,0.037,0.0066,0.0031,-0.0112,-0.0161,-0.0123,-0.0147,-0.0143,-0.0139,-0.0153,-0.0153,-0.0154,-0.0154,0,0.0529,0.0563,0.0639,0.0782,0.0884,0.1015,0.1139,0.1231,0.1305,0.1381,0.1461,0.1419,0.1105,0.079,0.0357,0.015,-0.0079,-0.0132,-0.0095,-0.0124,-0.0106,-0.0128,-0.0124,-0.0159,-0.0158,-0.0158,-0.0158,-0.0157,0.0582,0.0654,0.0761,0.0897,0.1017,0.1185,0.1315,0.1451,0.161,0.1703,0.1655,0.1584,0.1218,0.0655,0.03,-0.0086,-0.0076,-0.0226,-0.0222,-0.0218,-0.0212,-0.0198,-0.0265,-0.0266,-0.0266,-0.0266,-0.0266,0,0.0665,0.0746,0.0873,0.1048,0.1189,0.1241,0.1458,0.1587,0.1779,0.1818,0.1845,0.1478,0.1121,0.071,0.0136,-0.0202,-0.0221,-0.0307,-0.0262,-0.0256,-0.0251,-0.0245,-0.0308,-0.0308,-0.0309,-0.031,0,0,0.0713,0.086,0.093,0.1171,0.1277,0.1517,0.1643,0.1795,0.1876,0.1907,0.1836,0.1697,0.1211,0.079,0.0333,0.0013,-0.0039,-0.0048,0.0016,0.0129,0.0138,-0.0179,-0.0161,0,0,0,0,0]}],[{"header":{"parameterUnit":"m.s-1","parameterCategory":2,"la1":30.2991,"la2":30.254,"lo1":-89.0895,"lo2":-89.0444,"dy":0.0017,"dx":0.0017,"nx":28,"ny":28,"refTime":"2025-03-25T03:00:00:Z","depth":"4","parameterNumber":2,"parameterNumberName":"U-component_of_CURRENTS"},"data":[0,0,0,0,0,0,0,0,0,0,0,0,0,0,0,0,0,0,0,0,0,0,0,0,0,0,0,0,0,0,0,0,0,0,0,0,0,0,0,0,0,0,0,0,0,0,0,0,0,0,0,0,0,0,0,0,0,0,0.1424,0.1425,0,0.1472,0.1472,0.1472,0.1503,0.1504,0.1504,0.1505,0.1534,0.1535,0.1535,0,0,0,0,0,0,0,0,0,0,0,0,0,0.1371,0.1372,0.1424,0.1425,0.1426,0.1472,0.1472,0.1472,0.1503,0.1504,0.1505,0.1505,0.1534,0.1535,0.1535,0,0,0,0,0,0,0,0,0,0,0,0,0,0.14,0.1372,0.1424,0.145,0.1453,0.1472,0.1472,0.1472,0.1503,0.1504,0.1505,0.1506,0.1534,0.1535,0.1535,0.152,0,0,0.1536,0.1536,0,0,0,0,0,0,0,0,0.1398,0.1401,0.1445,0.1449,0.1452,0.1486,0.1465,0.1489,0.1503,0.148,0.1505,0.1506,0.1519,0.152,0.1522,0.1521,0.1522,0.1536,0.1536,0.1536,0.1537,0,0,0,0,0,0,0,0.1396,0.14,0.1439,0.1446,0.1451,0.1464,0.1468,0.1469,0.149,0.1482,0.1485,0.1497,0.152,0.1521,0.1523,0.1523,0.1536,0.1536,0.1537,0.1537,0.1576,0.1577,0,0,0,0,0,0,0.1397,0.1398,0.1437,0.1441,0.1432,0.1464,0.1469,0.1471,0.1491,0.1496,0.1496,0.1498,0.152,0.1522,0.1524,0.1587,0.1536,0.1537,0.1537,0.1575,0.1576,0.1577,0,0,0,0,0,0,0.1396,0.14,0.1436,0.1424,0.143,0.1465,0.1466,0.1472,0.1507,0.1503,0.1507,0.1531,0.1521,0.1523,0.1551,0.1586,0.1537,0.1537,0.1574,0.1576,0.1577,0.1663,0,0,0,0,0,0,0.1394,0.1399,0.1421,0.1424,0.1431,0.1466,0.1466,0.1472,0.1513,0.1517,0.1533,0.1535,0.1522,0.1551,0.1551,0.1585,0.1538,0.1573,0.1575,0.1577,0.1659,0.1667,0.1674,0,0,0,0,0,0.1392,0.1409,0.1421,0.1428,0.1453,0.1467,0.1472,0.1496,0.1515,0.1532,0.1545,0.1536,0.1561,0.1552,0.1552,0.1588,0.1573,0.1575,0.1576,0.1656,0.1666,0.1674,0,0,0,0,0,0,0.1392,0.1414,0.1428,0.145,0.147,0.1475,0.1501,0.1517,0.1541,0.1557,0.1549,0.1551,0.1581,0.1571,0.1561,0.16,0.1564,0.1567,0.1625,0.1634,0.1641,0.1667,0.1538,0,0,0,0,0,0.1404,0.1429,0.1442,0.1466,0.1477,0.1497,0.1516,0.1533,0.1547,0.1561,0.1572,0.158,0.1582,0.1601,0.1592,0.1625,0.1639,0.1645,0.1653,0.1659,0.1679,0.1733,0.1748,0.1583,0.1583,0.1583,0,0,0.1411,0.143,0.1444,0.1471,0.1488,0.1503,0.151,0.1546,0.1566,0.1559,0.1598,0.1603,0.1592,0.1619,0.1633,0.1625,0.1712,0.1661,0.1667,0.1685,0.1737,0.1753,0.1768,0.1585,0.1585,0.1584,0,0,0.1426,0.1453,0.1475,0.1492,0.1531,0.1539,0.1557,0.1582,0.1603,0.164,0.1633,0.1674,0.1677,0.1688,0.1689,0.1736,0.1738,0.1726,0.1805,0.1857,0.1872,0.1885,0.1926,0.1942,0.1745,0.1745,0.1745,0,0.1443,0.1458,0.1485,0.1506,0.1525,0.1556,0.1575,0.1595,0.163,0.1655,0.1664,0.1712,0.1713,0.1753,0.1775,0.1758,0.1781,0.1775,0.187,0.1883,0.1896,0.1934,0.1951,0.175,0.1749,0.1749,0.1748,0,0.1453,0.1481,0.1494,0.1529,0.1557,0.1578,0.1606,0.1647,0.1685,0.1707,0.177,0.179,0.1828,0.1833,0.1826,0.1907,0.1894,0.1864,0.1855,0.1918,0.1954,0.197,0.1756,0.1754,0.1753,0.1752,0,0,0.1446,0.1492,0.1503,0.1507,0.1569,0.1573,0.1637,0.168,0.1729,0.1782,0.1836,0.1887,0.1927,0.1932,0.194,0.2003,0.2116,0.1989,0.1989,0.2043,0.2236,0.2081,0.2083,0.2109,0.2112,0.2115,0.2228,0,0.1446,0.1471,0.151,0.1531,0.1534,0.1595,0.1633,0.1691,0.1767,0.1825,0.1881,0.1931,0.1951,0.1993,0.2063,0.2089,0.2162,0.2088,0.2155,0.2157,0.2023,0.2097,0.2125,0.224,0.2243,0.2246,0.2248,0,0.1441,0.1452,0.1478,0.1505,0.1515,0.1548,0.1638,0.1675,0.1782,0.1849,0.1956,0.1998,0.2104,0.2098,0.2241,0.2196,0.2239,0.2265,0.2269,0.2108,0.2032,0.2161,0.2277,0.2274,0.2272,0.227,0.2269,0,0.1386,0.1425,0.1439,0.1449,0.1497,0.1538,0.1571,0.1693,0.1747,0.1881,0.1965,0.2076,0.2161,0.2232,0.2324,0.2295,0.2458,0.241,0.2315,0.2304,0.2373,0.2357,0.2519,0.2519,0.2519,0.2518,0.2518,0,0.135,0.1353,0.1413,0.1408,0.1425,0.1484,0.1555,0.1628,0.1757,0.1827,0.197,0.2061,0.221,0.2317,0.2355,0.2393,0.2494,0.235,0.233,0.2403,0.239,0.2384,0.2367,0.2522,0.2521,0.2521,0.252,0,0.1283,0.1326,0.1326,0.1379,0.1401,0.1411,0.1521,0.1578,0.1724,0.1836,0.1883,0.2091,0.2225,0.2348,0.2478,0.2439,0.247,0.2457,0.2549,0.2529,0.2272,0.2258,0.2351,0.2346,0.2343,0.2339,0.2337,0,0.1244,0.1244,0.1295,0.1301,0.1331,0.1372,0.1415,0.1546,0.1629,0.1833,0.187,0.2068,0.2186,0.2262,0.238,0.2446,0.2426,0.2437,0.2341,0.2288,0.226,0.2252,0.2243,0.2331,0.233,0.2329,0.2328,0,0.1156,0.1198,0.1199,0.1228,0.1266,0.1285,0.1362,0.1414,0.1569,0.1726,0.1836,0.1922,0.207,0.2173,0.2266,0.2294,0.2415,0.2398,0.2405,0.2315,0.2265,0.2239,0.2235,0.2315,0.2317,0.2318,0.2319,0,0.1098,0.1085,0.1117,0.1125,0.1171,0.1178,0.123,0.1318,0.1404,0.1646,0.1672,0.1862,0.2038,0.2095,0.2155,0.2195,0.2159,0.2096,0.2118,0.2134,0.201,0.1912,0.1859,0,0,0,0,0,0.1026,0.0997,0.1005,0.1,0.1052,0.1079,0.1185,0.1256,0.1434,0.1471,0.157,0.1684,0.18,0.19,0.1902,0.2052,0.216,0.2045,0.2095,0.2244,0.2259,0.2133,0,0,0,0,0,0,0.0968,0.0967,0.0964,0.0911,0.0898,0.0935,0.1002,0.1114,0.1155,0.1348,0.1428,0.1575,0.172,0.1778,0.1863,0.1895,0.1893,0.2167,0.2163,0.2236,0.2249,0.2261,0.2137,0,0,0,0,0]},{"header":{"parameterUnit":"m.s-1","parameterCategory":2,"la1":30.2991,"la2":30.254,"lo1":-89.0895,"lo2":-89.0444,"dy":0.0017,"dx":0.0017,"nx":28,"ny":28,"refTime":"2025-03-25T03:00:00:Z","depth":"4","parameterNumber":3,"parameterNumberName":"V-component_of_CURRENTS"},"data":[0,0,0,0,0,0,0,0,0,0,0,0,0,0,0,0,0,0,0,0,0,0,0,0,0,0,0,0,0,0,0,0,0,0,0,0,0,0,0,0,0,0,0,0,0,0,0,0,0,0,0,0,0,0,0,0,0,0,0.0173,0.0172,0,0.0139,0.0139,0.0139,0.0119,0.0119,0.0119,0.0119,0.0072,0.0071,0.007,0,0,0,0,0,0,0,0,0,0,0,0,0,0.0186,0.0186,0.0173,0.0172,0.0172,0.0139,0.0139,0.0139,0.0119,0.0119,0.0119,0.0119,0.0073,0.0071,0.007,0,0,0,0,0,0,0,0,0,0,0,0,0,0.017,0.0186,0.0173,0.0158,0.0156,0.0139,0.0139,0.0138,0.0119,0.0119,0.0119,0.0119,0.0073,0.0072,0.007,0.0063,0,0,0.0065,0.0064,0,0,0,0,0,0,0,0,0.0171,0.0169,0.0161,0.0159,0.0157,0.0133,0.0126,0.0112,0.0119,0.0134,0.0119,0.0119,0.0091,0.0088,0.0083,0.0061,0.0059,0.0065,0.0064,0.0063,0.0062,0,0,0,0,0,0,0,0.0172,0.017,0.016,0.016,0.0158,0.0141,0.0139,0.0124,0.0114,0.0133,0.0131,0.0126,0.009,0.0085,0.0082,0.0059,0.0065,0.0063,0.0062,0.0061,0.0044,0.0044,0,0,0,0,0,0,0.0177,0.0172,0.0161,0.0159,0.0163,0.0141,0.0139,0.0141,0.0115,0.011,0.0127,0.0126,0.0088,0.0084,0.008,0.0085,0.0063,0.0061,0.006,0.0043,0.0044,0.0044,0,0,0,0,0,0,0.0177,0.0177,0.0163,0.0164,0.0161,0.0141,0.0144,0.0141,0.0137,0.011,0.0106,0.0126,0.0087,0.0082,0.0074,0.0082,0.0061,0.0059,0.0042,0.0043,0.0044,0.0085,0,0,0,0,0,0,0.0178,0.0177,0.0181,0.0164,0.0161,0.0159,0.0144,0.014,0.0134,0.0132,0.0108,0.0104,0.0087,0.0077,0.0072,0.0079,0.0058,0.0042,0.0043,0.0044,0.0083,0.0087,0.009,0,0,0,0,0,0.0179,0.0187,0.0182,0.018,0.0167,0.016,0.0157,0.0142,0.0134,0.0137,0.0122,0.0105,0.008,0.0076,0.007,0.0077,0.0041,0.0042,0.0044,0.0081,0.0086,0.009,0,0,0,0,0,0,0.0193,0.0185,0.0179,0.0185,0.0175,0.0156,0.0157,0.0145,0.0136,0.0134,0.0109,0.0104,0.0103,0.0084,0.008,0.0076,0.0058,0.0059,0.0089,0.0093,0.0097,0.0106,0.0056,0,0,0,0,0,0.0199,0.0203,0.0191,0.0194,0.0194,0.0176,0.0171,0.0161,0.0148,0.0143,0.0127,0.0112,0.0103,0.0094,0.0084,0.0077,0.0044,0.0079,0.0083,0.0086,0.009,0.0045,0.0044,0.0048,0.0048,0.0048,0,0,0.0205,0.0199,0.0202,0.0197,0.019,0.0196,0.0173,0.017,0.0175,0.014,0.0144,0.0126,0.0106,0.0104,0.0101,0.0088,0.0067,0.0088,0.0091,0.0093,0.0046,0.0045,0.0045,0.0049,0.0049,0.0049,0,0,0.0218,0.0217,0.0227,0.0225,0.0217,0.0209,0.0211,0.0197,0.0194,0.0192,0.0173,0.0158,0.0143,0.0129,0.012,0.0138,0.0094,0.0136,0.0155,0.0111,0.011,0.0109,0.0063,0.0057,0.0132,0.0132,0.0132,0,0.0224,0.024,0.0228,0.0238,0.0244,0.022,0.0237,0.023,0.0214,0.0216,0.0201,0.0177,0.0156,0.0151,0.0157,0.0146,0.0111,0.0139,0.0115,0.0113,0.0111,0.0064,0.0058,0.0134,0.0134,0.0134,0.0133,0,0.0247,0.0262,0.027,0.0279,0.0283,0.0293,0.0286,0.0287,0.0278,0.0267,0.0261,0.0226,0.0212,0.02,0.0184,0.0165,0.0142,0.0128,0.0102,0.0113,0.0063,0.0055,0.0137,0.0136,0.0136,0.0135,0,0,0.0255,0.0283,0.0287,0.0312,0.031,0.0323,0.0332,0.0341,0.0357,0.0324,0.0331,0.0302,0.0275,0.0264,0.0232,0.0187,0.014,0.0153,0.015,0.0106,0.0035,0.0027,0.0017,0.0116,0.0115,0.0115,0.0005,0,0.028,0.0322,0.0324,0.037,0.0397,0.039,0.041,0.041,0.04,0.0398,0.0349,0.0345,0.0302,0.0295,0.0242,0.0169,0.0122,0.017,0.0033,0.0029,0.0019,0.0009,0.0111,-0.0001,-0.0003,-0.0004,-0.0005,0,0.0303,0.0334,0.0386,0.044,0.0453,0.0476,0.0512,0.0526,0.0509,0.0494,0.0459,0.042,0.036,0.0321,0.0185,0.0216,0.0135,0.0067,0.0061,0.0035,0.0007,-0.0014,-0.002,-0.0019,-0.0018,-0.0017,-0.0016,0,0.0326,0.038,0.0432,0.0447,0.0495,0.0527,0.0556,0.056,0.059,0.0555,0.0558,0.0469,0.044,0.0314,0.0178,0.0179,0.0018,0.0001,-0.0086,-0.0088,-0.0066,-0.0064,-0.0093,-0.0093,-0.0093,-0.0092,-0.0092,0,0.0353,0.0397,0.0457,0.0487,0.0565,0.0581,0.0652,0.0655,0.067,0.0701,0.0618,0.0604,0.0438,0.033,0.0188,0.0025,0.0023,-0.0085,-0.0117,-0.0046,-0.004,-0.0072,-0.0069,-0.0097,-0.0096,-0.0095,-0.0094,0,0.0368,0.0401,0.0474,0.0548,0.0578,0.0639,0.0731,0.078,0.0777,0.0807,0.0802,0.0707,0.0556,0.038,0.0172,0.006,-0.0109,-0.0163,-0.0076,-0.0101,-0.019,-0.0183,-0.0277,-0.0278,-0.0279,-0.028,-0.0281,0,0.0381,0.0417,0.0521,0.0579,0.0621,0.0715,0.0782,0.0824,0.0872,0.0865,0.088,0.0761,0.0668,0.0371,0.0172,-0.0108,-0.0139,-0.0225,-0.0209,-0.0188,-0.0209,-0.02,-0.0192,-0.0282,-0.0283,-0.0283,-0.0283,0,0.0409,0.0447,0.0512,0.0629,0.0718,0.082,0.0915,0.0954,0.0994,0.0993,0.0941,0.0788,0.0619,0.0376,0.0166,-0.0035,-0.0175,-0.0236,-0.0235,-0.0221,-0.0196,-0.0214,-0.0204,-0.0287,-0.0286,-0.0286,-0.0286,0,0.0436,0.0489,0.0578,0.0684,0.0795,0.0898,0.0944,0.1001,0.1046,0.1031,0.1005,0.0814,0.0707,0.0413,0.021,0.0016,-0.0033,-0.009,-0.0098,-0.0096,-0.0013,0.0047,0.0002,0,0,0,0,0,0.0461,0.0528,0.0628,0.0751,0.086,0.0927,0.1026,0.1059,0.1086,0.1063,0.104,0.0875,0.0578,0.0447,0.0252,0.0179,-0.0074,-0.0057,-0.0145,-0.0306,-0.0302,-0.0236,0,0,0,0,0,0,0.0483,0.0575,0.0632,0.0786,0.0873,0.1002,0.1065,0.1082,0.1068,0.1055,0.09,0.0827,0.0538,0.0691,0.0249,0.0189,0.0106,-0.0194,-0.0199,-0.0309,-0.0305,-0.0302,-0.0233,0,0,0,0,0]}]]